|
Cosmos 2297 - Orbit
|
Wildcat Hills Observatory;
15:24:53
| Home | Info | Passes |
|
View from above orbital plane
|
View from above satellite
|
Ground track
|
The orbit data is extracted from the following two-line orbital elements,
1 23404U 94077A 13143.68097263 .00000189 00000-0 12572-3 0 4952
2 23404 071.0140 162.3113 0017187 248.4036 249.3383 14.13330730954179
| Epoch (UTC): | 23 May 2013 16:20:36 |
| Eccentricity: | 0.0017187 |
| inclination: | 71.0140° |
| perigee height: | 835 km |
| apogee height: | 860 km |
| right ascension of ascending node: | 162.3113° |
| argument of perigee: | 248.4036° |
| revolutions per day: | 14.13330730 |
| mean anomaly at epoch: | 249.3383° |
| orbit number at epoch: | 95417 |
The dashed part of the orbit path shows where the satellite is in the earth's shadow,
|
|